TimeEST,TemperatureF,Dew PointF,Humidity,Sea Level PressureIn,VisibilityMPH,Wind Direction,Wind SpeedMPH,Gust SpeedMPH,PrecipitationIn,Events,Conditions,WindDirDegrees,DateUTC
12:15 AM,44.6,30.2,57,30.43,3.0,Calm,Calm,-,N/A,,Haze,0,2013-11-05 05:15:00
12:35 AM,44.6,28.4,53,30.43,2.5,Calm,Calm,-,N/A,,Haze,0,2013-11-05 05:35:00
12:55 AM,42.8,30.2,61,30.43,5.0,Calm,Calm,-,N/A,,Haze,0,2013-11-05 05:55:00
1:15 AM,42.8,32.0,66,30.44,10.0,Calm,Calm,-,N/A,,Clear,0,2013-11-05 06:15:00
1:35 AM,42.8,30.2,61,30.43,10.0,Calm,Calm,-,N/A,,Clear,0,2013-11-05 06:35:00
1:55 AM,41.0,30.2,65,30.43,10.0,Calm,Calm,-,N/A,,Clear,0,2013-11-05 06:55:00
2:15 AM,41.0,30.2,65,30.44,10.0,Calm,Calm,-,N/A,,Clear,0,2013-11-05 07:15:00
2:35 AM,39.2,32.0,75,30.43,10.0,Calm,Calm,-,N/A,,Clear,0,2013-11-05 07:35:00
2:55 AM,39.2,32.0,75,30.43,10.0,Calm,Calm,-,N/A,,Clear,0,2013-11-05 07:55:00
3:15 AM,37.4,32.0,81,30.44,10.0,Calm,Calm,-,N/A,,Clear,0,2013-11-05 08:15:00
3:35 AM,37.4,32.0,81,30.44,10.0,Calm,Calm,-,N/A,,Clear,0,2013-11-05 08:35:00
3:55 AM,39.2,32.0,75,30.45,10.0,Calm,Calm,-,N/A,,Clear,0,2013-11-05 08:55:00
4:15 AM,37.4,32.0,81,30.45,10.0,Calm,Calm,-,N/A,,Clear,0,2013-11-05 09:15:00
4:35 AM,39.2,30.2,70,30.45,10.0,Calm,Calm,-,N/A,,Clear,0,2013-11-05 09:35:00
4:55 AM,37.4,32.0,81,30.46,10.0,Calm,Calm,-,N/A,,Clear,0,2013-11-05 09:55:00
5:15 AM,37.4,32.0,81,30.46,10.0,Calm,Calm,-,N/A,,Clear,0,2013-11-05 10:15:00
5:35 AM,37.4,32.0,81,30.46,10.0,ENE,3.5,-,N/A,,Clear,70,2013-11-05 10:35:00
5:55 AM,37.4,32.0,81,30.46,10.0,Calm,Calm,-,N/A,,Clear,0,2013-11-05 10:55:00
6:15 AM,37.4,32.0,81,30.45,10.0,Calm,Calm,-,N/A,,Clear,0,2013-11-05 11:15:00
6:35 AM,35.6,32.0,87,30.45,10.0,Calm,Calm,-,N/A,,Clear,0,2013-11-05 11:35:00
6:55 AM,37.4,32.0,81,30.47,10.0,Calm,Calm,-,N/A,,Clear,0,2013-11-05 11:55:00
7:15 AM,35.6,32.0,87,30.48,10.0,Calm,Calm,-,N/A,,Clear,0,2013-11-05 12:15:00
7:35 AM,37.4,32.0,81,30.48,10.0,Calm,Calm,-,N/A,,Clear,0,2013-11-05 12:35:00
7:55 AM,37.4,32.0,81,30.49,10.0,Calm,Calm,-,N/A,,Clear,0,2013-11-05 12:55:00
8:15 AM,37.4,32.0,81,30.50,10.0,Calm,Calm,-,N/A,,Clear,0,2013-11-05 13:15:00
8:35 AM,39.2,32.0,75,30.50,10.0,Calm,Calm,-,N/A,,Clear,0,2013-11-05 13:35:00
8:55 AM,39.2,35.6,87,30.50,10.0,Calm,Calm,-,N/A,,Clear,0,2013-11-05 13:55:00
9:15 AM,42.8,33.8,70,30.48,10.0,Calm,Calm,-,N/A,,Clear,0,2013-11-05 14:15:00
9:35 AM,44.6,32.0,61,30.48,10.0,Calm,Calm,-,N/A,,Clear,0,2013-11-05 14:35:00
9:55 AM,46.4,32.0,57,30.47,10.0,Calm,Calm,-,N/A,,Clear,0,2013-11-05 14:55:00
10:15 AM,48.2,32.0,54,30.47,10.0,Calm,Calm,-,N/A,,Clear,0,2013-11-05 15:15:00
10:35 AM,51.8,32.0,47,30.48,10.0,Calm,Calm,-,N/A,,Clear,0,2013-11-05 15:35:00
10:55 AM,51.8,32.0,47,30.48,10.0,Calm,Calm,-,N/A,,Clear,0,2013-11-05 15:55:00
11:15 AM,53.6,32.0,44,30.47,10.0,Calm,Calm,-,N/A,,Clear,0,2013-11-05 16:15:00
11:35 AM,55.4,32.0,41,30.45,10.0,Calm,Calm,-,N/A,,Clear,0,2013-11-05 16:35:00
11:55 AM,55.4,32.0,41,30.46,10.0,Calm,Calm,-,N/A,,Clear,0,2013-11-05 16:55:00
12:15 PM,55.4,32.0,41,30.46,10.0,Calm,Calm,-,N/A,,Clear,0,2013-11-05 17:15:00
12:35 PM,55.4,32.0,41,30.44,10.0,Calm,Calm,-,N/A,,Clear,0,2013-11-05 17:35:00
12:55 PM,57.2,32.0,38,30.44,10.0,Calm,Calm,-,N/A,,Clear,0,2013-11-05 17:55:00
1:15 PM,57.2,32.0,38,30.42,10.0,Calm,Calm,-,N/A,,Clear,0,2013-11-05 18:15:00
1:35 PM,57.2,32.0,38,30.42,10.0,Calm,Calm,-,N/A,,Clear,0,2013-11-05 18:35:00
1:55 PM,57.2,32.0,38,30.41,10.0,Calm,Calm,-,N/A,,Clear,0,2013-11-05 18:55:00
2:15 PM,60.8,32.0,34,30.41,10.0,Calm,Calm,-,N/A,,Clear,0,2013-11-05 19:15:00
2:35 PM,59.0,32.0,36,30.40,10.0,Calm,Calm,-,N/A,,Clear,0,2013-11-05 19:35:00
2:55 PM,60.8,32.0,34,30.40,10.0,Calm,Calm,-,N/A,,Clear,0,2013-11-05 19:55:00
3:15 PM,60.8,32.0,34,30.39,10.0,Calm,Calm,-,N/A,,Clear,0,2013-11-05 20:15:00
3:35 PM,60.8,32.0,34,30.39,10.0,Calm,Calm,-,N/A,,Clear,0,2013-11-05 20:35:00
3:55 PM,59.0,32.0,36,30.39,10.0,Calm,Calm,-,N/A,,Clear,0,2013-11-05 20:55:00
4:15 PM,59.0,32.0,36,30.39,10.0,Calm,Calm,-,N/A,,Clear,0,2013-11-05 21:15:00
4:35 PM,57.2,32.0,38,30.38,10.0,Calm,Calm,-,N/A,,Clear,0,2013-11-05 21:35:00
4:55 PM,57.2,32.0,38,30.39,10.0,Calm,Calm,-,N/A,,Clear,0,2013-11-05 21:55:00
5:15 PM,55.4,32.0,41,30.39,10.0,Calm,Calm,-,N/A,,Clear,0,2013-11-05 22:15:00
5:35 PM,55.4,32.0,41,30.38,10.0,Calm,Calm,-,N/A,,Clear,0,2013-11-05 22:35:00
5:55 PM,55.4,32.0,41,30.39,10.0,Calm,Calm,-,N/A,,Clear,0,2013-11-05 22:55:00
6:15 PM,53.6,32.0,44,30.40,10.0,Calm,Calm,-,N/A,,Clear,0,2013-11-05 23:15:00
6:35 PM,55.4,26.6,33,30.39,10.0,SSE,6.9,-,N/A,,Clear,150,2013-11-05 23:35:00
6:55 PM,55.4,23.0,29,30.40,10.0,Calm,Calm,-,N/A,,Clear,0,2013-11-05 23:55:00
7:15 PM,53.6,26.6,35,30.39,10.0,Calm,Calm,-,N/A,,Clear,0,2013-11-06 00:15:00
7:35 PM,53.6,24.8,33,30.40,10.0,Calm,Calm,-,N/A,,Clear,0,2013-11-06 00:35:00
7:55 PM,51.8,26.6,38,30.39,10.0,SSE,5.8,-,N/A,,Clear,150,2013-11-06 00:55:00
8:15 PM,51.8,28.4,41,30.39,10.0,Calm,Calm,-,N/A,,Clear,0,2013-11-06 01:15:00
8:35 PM,48.2,32.0,54,30.38,10.0,Calm,Calm,-,N/A,,Clear,0,2013-11-06 01:35:00
8:55 PM,48.2,32.0,54,30.38,10.0,Calm,Calm,-,N/A,,Clear,0,2013-11-06 01:55:00
9:15 PM,48.2,33.8,58,30.37,10.0,SE,4.6,-,N/A,,Clear,130,2013-11-06 02:15:00
9:35 PM,48.2,33.8,58,30.37,10.0,Calm,Calm,-,N/A,,Clear,0,2013-11-06 02:35:00
9:55 PM,48.2,33.8,58,30.37,10.0,Calm,Calm,-,N/A,,Clear,0,2013-11-06 02:55:00
10:15 PM,48.2,33.8,58,30.37,10.0,Calm,Calm,-,N/A,,Clear,0,2013-11-06 03:15:00
10:35 PM,48.2,33.8,58,30.36,10.0,Calm,Calm,-,N/A,,Clear,0,2013-11-06 03:35:00
10:55 PM,48.2,35.6,62,30.36,10.0,Calm,Calm,-,N/A,,Clear,0,2013-11-06 03:55:00
11:15 PM,46.4,33.8,62,30.36,10.0,Calm,Calm,-,N/A,,Clear,0,2013-11-06 04:15:00
11:35 PM,44.6,33.8,66,30.36,10.0,Calm,Calm,-,N/A,,Clear,0,2013-11-06 04:35:00
11:55 PM,44.6,33.8,66,30.36,10.0,Calm,Calm,-,N/A,,Clear,0,2013-11-06 04:55:00